Weather History for KUNV - November, 2013

Change the Weather History Date:

Thursday, November 21, 2013

  Actual Average Record
Temperature  
Mean Temperature 36 °F -  
Max Temperature 42 °F 47 °F 72 °F (1991)
Min Temperature 30 °F 29 °F 13 °F (1987)
Degree Days  
Heating Degree Days 29    
Moisture  
Dew Point 24 °F    
Average Humidity 62    
Maximum Humidity 76    
Minimum Humidity 44    
Precipitation  
Precipitation 0.00 in - - ()
Sea Level Pressure  
Sea Level Pressure 30.44 in    
Wind  
Wind Speed 2 mph (South)    
Max Wind Speed 12 mph    
Max Gust Speed -    
Visibility 10 miles    
Events      
Averages and records for this station are not official NWS values.
T = Trace of Precipitation, MM = Missing Value Source: NWS Daily Summary

Daily Weather History Graph

Daily Weather History Graph

Search for Another Location

Airport or City:

Trip Planner

Search our weather history database for the weather conditions in past years. The results will help you decide how hot, cold, wet, or windy it might be!

Date:

Astronomy

Nov. 21, 2013 Rise Set
Actual Time 7:05 AM EST 4:48 PM EST
Civil Twilight 6:35 AM EST 5:18 PM EST
Nautical Twilight 6:02 AM EST 5:51 PM EST
Astronomical Twilight 5:29 AM EST 6:24 PM EST
Moon 8:23 PM EST (11/21) 10:10 AM EST (11/21)
Length of Visible Light 10h 42m
Length of Day
9h 42m
Waning Gibbous, 85% of the Moon is Illuminated
Nov 21
Waning Gibbous
Nov 25
Last Quarter
Dec 2
New
Dec 9
First Quarter
Dec 17
Full

Hourly Weather History & Observations

Time (EST) Temp. Windchill Dew Point Humidity Pressure Visibility Wind Dir Wind Speed Gust Speed Precip Events Conditions
12:15 AM 33.4 °F - 13.6 °F 44% 30.49 in 10.0 mi Calm Calm - N/A   Clear
12:35 AM 31.3 °F 27.9 °F 14.9 °F 51% 30.50 in 10.0 mi South 3.5 mph - N/A   Clear
12:55 AM 33.8 °F 30.8 °F 13.8 °F 44% 30.50 in 10.0 mi SSE 3.5 mph - N/A   Clear
1:15 AM 33.1 °F - 14.4 °F 46% 30.50 in 10.0 mi Calm Calm - N/A   Clear
1:35 AM 32.4 °F - 14.2 °F 47% 30.50 in 10.0 mi Calm Calm - N/A   Clear
1:55 AM 32.5 °F - 14.4 °F 47% 30.50 in 10.0 mi Calm Calm - N/A   Clear
2:15 AM 32.2 °F - 14.5 °F 48% 30.50 in 10.0 mi Calm Calm - N/A   Clear
2:35 AM 32.7 °F - 14.7 °F 48% 30.49 in 10.0 mi Calm Calm - N/A   Clear
2:55 AM 32.9 °F - 14.9 °F 48% 30.49 in 10.0 mi Calm Calm - N/A   Clear
3:15 AM 33.1 °F - 15.1 °F 48% 30.50 in 10.0 mi Calm Calm - N/A   Clear
3:35 AM 33.1 °F - 15.8 °F 49% 30.50 in 10.0 mi Calm Calm - N/A   Clear
3:55 AM 31.1 °F - 16.2 °F 54% 30.50 in 10.0 mi Calm Calm - N/A   Clear
4:15 AM 32.0 °F 28.7 °F 16.2 °F 52% 30.50 in 10.0 mi SSE 3.5 mph - N/A   Clear
4:35 AM 32.0 °F 28.7 °F 17.6 °F 55% 30.50 in 10.0 mi South 3.5 mph - N/A   Clear
4:55 AM 31.8 °F - 18.3 °F 57% 30.49 in 10.0 mi Calm Calm - N/A   Scattered Clouds
5:15 AM 32.0 °F - 19.4 °F 60% 30.49 in 10.0 mi Calm Calm - N/A   Clear
5:35 AM 30.9 °F - 18.7 °F 61% 30.49 in 10.0 mi Calm Calm - N/A   Clear
5:53 AM 32.0 °F - 21.2 °F 64% 30.49 in 10.0 mi Calm Calm - N/A   Mostly Cloudy
6:53 AM 33.8 °F - 23.0 °F 65% 30.50 in 10.0 mi Calm Calm - N/A   Overcast
7:53 AM 33.8 °F - 24.8 °F 70% 30.52 in 10.0 mi Calm Calm - N/A   Overcast
8:53 AM 35.6 °F 31.7 °F 24.8 °F 65% 30.50 in 10.0 mi SSW 4.6 mph - N/A   Overcast
9:53 AM 39.2 °F 34.2 °F 28.4 °F 65% 30.50 in 10.0 mi South 6.9 mph - N/A   Mostly Cloudy
10:53 AM 39.2 °F 32.5 °F 28.4 °F 65% 30.48 in 10.0 mi SSW 10.4 mph - N/A   Scattered Clouds
11:53 AM 41.0 °F 34.3 °F 30.2 °F 65% 30.43 in 10.0 mi SSW 11.5 mph - N/A   Mostly Cloudy
12:53 PM 41.0 °F 34.3 °F 30.2 °F 65% 30.42 in 10.0 mi South 11.5 mph - N/A   Overcast
1:53 PM 42.8 °F 36.6 °F 32.0 °F 66% 30.39 in 10.0 mi South 11.5 mph - N/A   Mostly Cloudy
2:53 PM 42.8 °F 37.5 °F 32.0 °F 66% 30.38 in 10.0 mi South 9.2 mph - N/A   Overcast
3:53 PM 42.8 °F 39.3 °F 32.0 °F 66% 30.37 in 10.0 mi South 5.8 mph - N/A   Mostly Cloudy
4:53 PM 42.8 °F 39.3 °F 32.0 °F 66% 30.38 in 10.0 mi South 5.8 mph - N/A   Mostly Cloudy
5:53 PM 41.0 °F - 32.0 °F 70% - 10.0 mi Calm Calm - N/A   Mostly Cloudy
6:53 PM 41.0 °F - 32.0 °F 70% 30.38 in 10.0 mi Calm Calm - N/A   Clear
7:53 PM 39.2 °F - 32.0 °F 75% 30.37 in 10.0 mi Calm Calm - N/A   Scattered Clouds
8:53 PM 39.2 °F - 32.0 °F 75% 30.37 in 10.0 mi Calm Calm - N/A   Clear
9:55 PM 41.0 °F - 32.9 °F 73% 30.34 in 10.0 mi Calm Calm - N/A   Overcast
10:15 PM 40.8 °F - 33.3 °F 74% 30.33 in 10.0 mi Calm Calm - N/A   Overcast
10:35 PM 41.0 °F - 33.3 °F 74% 30.33 in 10.0 mi Calm Calm - N/A   Overcast
10:55 PM 41.2 °F - 34.0 °F 76% 30.34 in 10.0 mi Calm Calm - N/A   Overcast
11:15 PM 41.0 °F - 33.8 °F 76% 30.32 in 10.0 mi Calm Calm - N/A   Overcast
11:35 PM 41.0 °F - 33.8 °F 76% 30.32 in 10.0 mi Calm Calm - N/A   Overcast
11:55 PM 41.9 °F 40.0 °F 34.9 °F 76% 30.31 in 10.0 mi West 3.5 mph - N/A   Overcast